Vertical_Velocity
-1 -1 -1 -0 0 0 0 -0 -1 -1 -0 0 1 0 0 0 0 -1 -1 -2 -3 -2 -2 -1 -0 0 1 1 1 1 2 3 2 1 0 -0 -1 -1 -1 -2 -3 -3 -3 -2 0 2 3 4 4 3 3 3 1 1 3 5 4 3 3 5 5 6 6 5 7 6 3 -1 -2
-1 -1 -1 -1 -1 0 0 0 0 -0 -1 -0 0 0 0 0 0 -0 -1 -1 -2 -2 -2 -1 -0 -0 -0 -0 0 0 0 1 2 2 1 0 -0 -0 -0 -1 -1 -1 -2 -2 -1 0 2 3 4 3 3 3 3 3 3 2 4 4 4 2 4 6 7 6 9 8 4 -0 -2
-1 -1 -1 -1 -1 -0 0 1 0 0 -0 -1 -1 -1 -1 -1 -1 -1 -1 -1 -1 -2 -2 -1 -1 -1 -1 -2 -2 -2 -2 -2 -1 -0 0 0 -0 -1 -1 -1 -0 -0 -1 -2 -1 -1 1 3 3 3 3 4 5 3 2 2 6 6 4 2 4 6 6 3 5 8 9 4 -1
-1 -1 -0 -0 -1 -1 -0 0 0 0 0 0 -0 -1 -1 -1 -2 -2 -1 -1 -1 -1 -2 -2 -2 -2 -3 -3 -3 -3 -3 -4 -3 -2 -1 -0 -1 -1 -2 -2 -1 -1 -1 -1 -1 -1 -0 1 2 3 3 4 4 2 2 4 6 4 1 2 6 5 3 2 2 8 14 11 7
-1 -1 -0 -0 -1 -1 -1 -1 -0 -0 0 1 1 -0 -1 -1 -2 -2 -2 -1 -1 -1 -2 -3 -3 -3 -3 -3 -3 -3 -4 -4 -4 -4 -3 -2 -1 -1 -2 -2 -2 -2 -1 -0 -1 -1 -1 -0 0 2 3 4 2 0 -0 3 4 1 -1 -0 1 0 -0 2 4 7 12 15 15
0 0 -0 -0 -0 -1 -1 -1 -1 -1 -0 0 1 0 -1 -2 -2 -3 -3 -2 -1 -1 -2 -3 -3 -4 -4 -4 -4 -4 -4 -4 -4 -4 -4 -3 -2 -2 -2 -2 -2 -2 -1 -1 -1 -1 -1 -1 -1 1 3 4 1 -1 -2 1 2 2 3 3 0 1 2 2 5 9 13 17 15
1 1 0 0 0 -0 -1 -1 -1 -1 -1 -0 -0 -1 -2 -3 -3 -4 -3 -3 -2 -2 -2 -3 -3 -4 -4 -4 -4 -4 -4 -3 -4 -4 -4 -4 -3 -3 -2 -2 -2 -2 -2 -1 -1 -1 -1 -1 -1 1 2 4 1 -2 -2 1 2 6 11 13 12 15 16 7 10 13 15 14 14
0 0 0 0 0 -0 -1 -1 -1 -1 -1 -1 -1 -2 -2 -4 -4 -4 -4 -3 -3 -3 -3 -3 -3 -4 -4 -4 -4 -4 -4 -3 -3 -3 -4 -4 -4 -3 -3 -2 -2 -2 -2 -2 -1 -1 -0 -0 -0 1 3 4 1 -1 -2 -1 3 11 19 21 18 18 16 9 9 12 15 14 16
-0 -0 -0 -0 -0 -0 -1 -1 -2 -2 -2 -2 -2 -2 -3 -4 -5 -5 -4 -3 -3 -3 -4 -4 -4 -4 -4 -4 -4 -5 -4 -4 -3 -3 -3 -3 -3 -3 -3 -3 -2 -2 -2 -2 -2 -1 -1 -0 0 2 3 4 2 0 -2 -3 4 14 23 27 27 23 17 12 13 15 15 15 16
-0 -0 -0 -0 -0 -1 -1 -1 -2 -2 -2 -2 -1 -2 -3 -5 -6 -6 -5 -4 -3 -4 -4 -5 -4 -4 -4 -4 -4 -5 -5 -5 -4 -3 -3 -3 -3 -3 -3 -2 -2 -1 -1 -2 -2 -2 -1 -1 0 2 3 5 4 1 -2 -4 5 18 32 47 52 48 39 28 23 20 17 15 12
-0 -0 -0 -0 -0 -1 -1 -1 -1 -2 -2 -1 -1 -1 -2 -4 -6 -6 -5 -4 -4 -4 -5 -5 -5 -4 -4 -4 -4 -5 -5 -5 -4 -3 -3 -2 -2 -2 -2 -2 -2 -1 -1 -2 -2 -2 -2 -2 -0 2 3 5 5 3 -0 -3 6 19 38 64 66 57 43 32 26 22 17 12 9
-0 -0 -0 -1 -1 -1 -1 -1 -1 -1 -1 -1 -0 -1 -2 -4 -5 -5 -5 -4 -3 -4 -5 -5 -5 -5 -4 -4 -4 -4 -5 -5 -4 -4 -3 -2 -2 -2 -2 -2 -2 -2 -2 -2 -3 -3 -3 -2 -1 0 2 4 5 4 2 -0 7 17 29 44 43 35 26 22 19 16 13 10 7
-0 -0 -0 -1 -1 -1 -1 -1 -1 -1 -1 -1 -0 -0 -1 -3 -5 -5 -4 -4 -3 -3 -4 -5 -5 -5 -4 -4 -4 -4 -5 -5 -4 -4 -3 -3 -3 -2 -2 -2 -2 -2 -2 -2 -3 -3 -3 -3 -2 -1 1 3 5 6 6 4 9 14 18 17 16 15 14 14 13 11 9 8 5
-1 -1 -1 -1 -1 -1 -1 -1 -1 -1 -1 -1 0 0 -0 -2 -4 -4 -4 -3 -3 -3 -3 -4 -4 -4 -4 -4 -4 -4 -5 -5 -4 -4 -4 -4 -3 -3 -2 -2 -2 -2 -2 -2 -2 -3 -3 -4 -3 -2 -1 1 4 7 8 8 11 15 16 12 9 10 13 16 15 11 6 2 2
-1 -1 -1 -1 -2 -2 -2 -2 -2 -1 -1 -0 0 1 0 -1 -3 -4 -4 -3 -2 -2 -2 -3 -3 -4 -4 -3 -4 -4 -5 -5 -4 -4 -4 -4 -4 -4 -3 -2 -2 -2 -2 -2 -2 -2 -3 -4 -4 -3 -2 0 3 7 9 10 13 16 18 17 14 12 11 14 16 13 7 -1 -0
-1 -2 -2 -2 -2 -2 -3 -3 -3 -2 -1 -1 0 1 1 -1 -3 -4 -4 -3 -2 -2 -2 -2 -3 -3 -3 -3 -3 -3 -4 -4 -4 -3 -3 -4 -4 -4 -3 -3 -2 -2 -2 -1 -1 -2 -3 -3 -3 -2 -2 -0 3 6 10 12 15 17 19 19 19 15 11 10 12 11 8 3 2
-2 -2 -2 -2 -2 -3 -3 -4 -4 -3 -2 -1 0 1 1 -1 -3 -4 -4 -4 -2 -1 -1 -2 -2 -2 -2 -3 -2 -3 -3 -4 -3 -3 -3 -3 -3 -3 -3 -3 -2 -2 -2 -1 -1 -2 -2 -3 -2 -1 -0 2 5 7 9 11 13 15 16 18 18 15 10 9 9 9 9 8 6
-2 -2 -2 -2 -2 -2 -3 -4 -4 -4 -3 -2 -0 0 0 -0 -2 -4 -5 -5 -3 -2 -1 -1 -2 -2 -2 -2 -2 -2 -3 -3 -3 -3 -2 -2 -2 -3 -3 -2 -2 -2 -2 -2 -2 -2 -2 -3 -1 2 6 11 13 13 11 8 8 9 11 15 14 11 8 8 6 7 10 13 9
-2 -2 -1 -1 -2 -2 -2 -3 -3 -3 -3 -2 -1 0 1 -0 -2 -3 -4 -5 -4 -2 -1 -1 -1 -1 -1 -1 -2 -2 -3 -3 -3 -3 -2 -2 -2 -2 -2 -2 -2 -2 -2 -2 -3 -3 -3 -2 2 7 13 21 23 22 17 10 5 4 6 10 10 8 6 5 4 5 9 14 12
-2 -2 -2 -1 -1 -1 -2 -2 -3 -3 -3 -2 -1 1 1 0 -1 -2 -4 -5 -4 -2 -1 -0 -0 -0 -1 -1 -1 -2 -3 -3 -3 -3 -3 -2 -1 -1 -1 -1 -1 -1 -2 -3 -4 -4 -3 -1 4 9 15 21 25 25 23 16 8 2 1 4 5 4 2 2 2 5 9 13 11
-2 -2 -2 -2 -1 -1 -1 -2 -2 -2 -2 -2 -1 1 1 1 -0 -2 -3 -4 -4 -3 -1 -0 0 0 -0 -1 -1 -1 -2 -3 -3 -3 -3 -2 -2 -1 -1 -1 -1 -1 -2 -3 -5 -5 -4 -0 4 7 10 15 19 21 21 19 16 10 4 1 -1 -2 -3 -2 1 5 9 12 10
-2 -2 -2 -1 -1 -1 -1 -1 -2 -2 -2 -2 -1 0 2 2 1 -1 -2 -3 -3 -3 -2 -1 -0 0 1 0 -0 -1 -1 -2 -2 -2 -2 -2 -2 -2 -2 -1 -1 -1 -2 -3 -5 -6 -4 -1 2 4 6 9 13 14 14 16 20 20 15 7 0 -4 -5 -4 0 5 8 10 9
-2 -2 -2 -1 -1 -1 -1 -1 -1 -2 -2 -2 -1 0 1 2 1 -0 -1 -3 -3 -3 -2 -2 -1 0 1 1 1 0 0 -0 -1 -2 -2 -2 -3 -3 -2 -2 -1 -1 -2 -2 -4 -6 -6 -2 1 2 3 5 8 9 9 11 17 21 21 16 7 -0 -4 -4 0 4 7 8 7
-1 -2 -2 -1 -1 -1 -1 -1 -1 -1 -2 -2 -1 -0 1 2 1 1 -0 -2 -3 -3 -3 -3 -1 -0 1 1 1 1 1 1 0 -0 -1 -2 -2 -2 -2 -2 -1 -1 -1 -2 -3 -6 -7 -5 -1 1 1 2 4 5 6 7 11 14 16 16 11 5 -1 -3 0 3 5 5 4
-1 -1 -1 -1 -1 -1 -1 -0 -1 -1 -1 -1 -1 -1 0 1 2 1 1 -1 -2 -3 -3 -3 -2 -1 0 1 1 1 1 1 1 1 -0 -1 -2 -2 -1 -1 -0 -0 -0 -1 -2 -4 -7 -8 -5 -1 1 1 3 4 4 3 3 4 6 8 8 5 2 -1 0 2 3 2 1
-1 -1 -1 -1 -1 -1 -1 -0 -0 -1 -1 -1 -1 -1 -1 0 1 1 1 0 -1 -1 -2 -2 -2 -1 -0 1 1 1 1 0 1 1 1 -0 -1 -1 -0 0 0 0 -0 -1 -2 -4 -6 -8 -9 -7 -3 0 2 3 3 1 -1 -2 -2 0 2 2 1 -0 -0 0 1 1 -1
-0 -1 -1 -1 -1 -1 -1 -0 -0 -0 -1 -1 -1 -1 -1 -0 0 1 1 1 1 -0 -1 -2 -2 -2 -1 0 1 1 1 0 0 1 1 1 0 -0 -0 1 1 1 -0 -2 -4 -4 -5 -6 -8 -10 -9 -5 -1 1 2 0 -2 -3 -3 -2 -1 -0 0 -0 -1 -0 0 0 -1
-0 -1 -1 -1 -1 -1 -1 -0 0 0 -0 -0 -1 -1 -1 -1 -0 0 1 1 1 1 0 -1 -2 -2 -1 -0 1 1 1 0 -0 0 0 1 1 0 0 1 1 1 0 -1 -3 -3 -3 -2 -4 -7 -8 -8 -5 -2 0 1 -1 -2 -2 -2 -1 -1 0 0 -0 0 0 0 -1
-0 -0 -1 -1 -1 -1 -1 -0 0 0 0 0 -0 -1 -1 -1 -0 -0 0 1 1 2 1 0 -1 -1 -1 -1 0 1 2 1 0 -0 -0 0 0 1 1 1 1 1 1 -1 -2 -2 -1 -0 -2 -3 -5 -5 -5 -4 -2 -0 -0 -1 -1 -1 -1 0 1 1 1 1 1 1 1
0 -0 -0 -1 -1 -1 -1 -1 -0 0 0 1 1 0 -0 -1 -1 -0 -0 0 1 2 2 2 1 -0 -1 -1 -0 1 1 1 0 0 -0 -1 -0 1 2 2 2 1 1 -1 -2 -2 -0 1 -1 -2 -3 -3 -3 -2 -2 -1 0 0 0 0 1 1 1 2 2 2 2 2 2
1 0 0 -1 -1 -1 -1 -1 -1 -0 -0 0 1 1 0 -0 -0 -1 -0 0 1 1 2 2 2 0 -0 -1 -0 0 0 0 0 0 0 -0 0 1 2 3 3 2 1 -1 -3 -2 -0 3 1 -1 -3 -3 -3 -2 -2 -1 0 1 1 2 2 3 3 3 3 3 3 3 3
1 1 0 -0 -1 -1 -1 -0 -1 -1 -1 -1 -0 0 1 1 -0 -1 -1 -1 0 1 2 2 2 1 1 0 0 -0 -0 -0 0 0 1 1 1 1 2 3 3 3 2 -1 -4 -3 -0 4 3 1 -1 -2 -3 -3 -3 -2 -2 -1 0 1 3 4 5 5 5 5 4 4 4
1 1 1 0 -0 -0 0 0 -0 -1 -1 -1 -1 -0 0 1 0 -0 -1 -1 -0 1 2 2 2 2 2 1 1 0 -0 -1 -0 1 1 2 2 2 2 2 2 2 1 -1 -3 -2 1 5 5 4 2 0 -1 -2 -3 -4 -4 -4 -3 -2 -0 1 2 3 3 3 3 4 3
1 1 1 0 0 1 1 1 0 -0 -1 -1 -1 -1 -0 1 1 0 -0 -1 -1 -0 1 2 2 2 2 2 2 1 1 -0 0 1 2 3 3 2 1 1 1 1 0 -1 -2 -1 3 6 7 7 5 3 2 1 -1 -2 -3 -4 -5 -5 -4 -3 -2 -1 -1 -1 -1 -1 -1
0 1 1 1 1 1 1 2 1 1 0 -0 -1 -1 -0 0 0 1 0 -0 -1 -1 -0 0 2 2 2 2 2 2 2 1 1 2 2 3 4 3 2 0 -0 -0 -0 -1 -2 -1 2 6 7 7 7 6 5 4 3 1 0 -1 -2 -3 -3 -3 -3 -3 -3 -3 -3 -4 -4
-1 -0 0 1 1 1 2 2 2 2 1 1 0 0 -0 -0 -0 0 0 1 0 -0 -1 -1 1 2 2 3 3 3 3 3 2 2 2 3 4 4 3 1 0 -0 -0 -1 -3 -2 1 5 6 7 7 7 6 5 4 4 3 3 2 2 0 -1 -1 -1 -2 -2 -2 -3 -4
-1 -1 -0 0 1 1 1 2 2 2 2 2 1 1 0 0 -0 -0 -0 1 1 0 -1 -0 0 1 2 3 3 3 3 3 3 2 2 3 3 4 4 3 2 1 0 -1 -4 -3 0 4 6 6 7 7 6 5 4 4 4 4 4 4 3 2 1 0 0 0 -0 -1 -1
-1 -1 -1 -1 0 1 1 1 2 2 2 2 2 2 1 1 0 -0 -0 1 1 1 0 0 1 1 1 2 3 3 3 3 3 2 2 2 3 3 4 3 3 2 1 -1 -4 -4 -1 4 6 7 6 6 5 4 3 2 3 3 4 4 4 3 3 2 2 2 2 2 1
-1 -2 -2 -1 -1 -0 0 0 1 1 2 2 2 2 2 1 1 0 -0 -0 1 1 1 1 1 1 1 2 2 3 3 3 3 2 2 2 3 4 4 4 3 3 2 -0 -3 -4 -2 1 5 6 6 6 5 3 2 1 2 2 3 3 4 4 4 3 3 3 3 3 3
-1 -2 -2 -2 -1 -1 -0 -0 -0 -0 0 1 2 2 2 2 1 1 0 0 0 0 1 2 2 1 1 2 2 2 2 3 3 3 3 3 3 4 4 4 3 3 2 1 -2 -3 -3 -1 3 5 6 6 5 3 2 1 1 1 2 3 4 4 4 4 4 4 4 3 3
-2 -2 -2 -2 -1 -1 -1 -0 -0 -0 -0 -0 0 1 1 1 1 1 1 0 -0 0 1 2 2 2 1 1 1 1 2 3 4 4 4 4 4 5 5 5 4 3 2 2 -0 -2 -3 -2 1 4 5 6 5 4 2 1 1 1 2 2 3 4 5 4 4 4 4 4 3
Height
5524 5523 5523 5522 5522 5521 5520 5520 5520 5519 5519 5518 5518 5517 5517 5516 5516 5515 5514 5514 5513 5512 5512 5511 5510 5510 5509 5508 5507 5506 5505 5505 5504 5503 5503 5502 5502 5502 5503 5503 5504 5505 5505 5507 5508 5509 5511 5512 5514 5515 5517 5519 5522 5525 5527 5528 5530 5532 5535 5537 5540 5542 5545 5550 5549 5550 5550 5551 5552
5521 5520 5520 5519 5519 5518 5517 5517 5516 5516 5515 5515 5514 5514 5513 5513 5512 5511 5510 5510 5509 5508 5507 5507 5506 5505 5504 5503 5502 5501 5500 5499 5499 5498 5497 5497 5497 5496 5497 5497 5497 5498 5499 5500 5501 5503 5504 5505 5507 5509 5511 5513 5516 5519 5521 5523 5525 5527 5528 5531 5534 5536 5539 5542 5546 5546 5545 5546 5546
5519 5518 5517 5516 5515 5515 5515 5514 5513 5513 5512 5512 5511 5510 5510 5509 5509 5508 5507 5506 5505 5504 5503 5502 5502 5501 5500 5498 5497 5496 5495 5495 5494 5493 5493 5492 5491 5491 5491 5491 5491 5492 5492 5493 5494 5496 5497 5499 5501 5503 5505 5507 5510 5512 5514 5517 5519 5521 5523 5525 5528 5531 5533 5535 5540 5541 5542 5542 5542
5516 5515 5515 5514 5513 5512 5512 5511 5510 5510 5510 5509 5508 5507 5507 5506 5505 5504 5503 5502 5501 5500 5499 5499 5498 5497 5496 5495 5493 5492 5491 5490 5490 5489 5488 5488 5487 5486 5486 5485 5485 5486 5486 5487 5488 5489 5490 5492 5494 5496 5499 5501 5504 5506 5508 5510 5513 5516 5518 5520 5524 5526 5528 5530 5534 5538 5539 5535 5538
5514 5513 5512 5511 5510 5510 5509 5508 5508 5507 5506 5506 5505 5505 5504 5503 5501 5500 5500 5499 5498 5497 5496 5495 5494 5493 5492 5491 5490 5489 5488 5487 5486 5485 5484 5484 5483 5482 5481 5481 5480 5480 5480 5481 5481 5482 5484 5485 5488 5490 5493 5495 5498 5500 5502 5505 5509 5512 5515 5516 5519 5521 5523 5525 5529 5533 5534 5532 5533
5512 5511 5510 5509 5508 5507 5506 5506 5505 5504 5504 5503 5502 5501 5500 5499 5498 5497 5496 5495 5494 5493 5492 5491 5490 5490 5488 5487 5486 5485 5484 5483 5482 5481 5480 5480 5479 5478 5477 5476 5476 5475 5475 5475 5475 5476 5477 5479 5481 5484 5486 5489 5492 5495 5498 5502 5505 5509 5512 5515 5517 5519 5520 5522 5525 5527 5528 5528 5528
5510 5509 5508 5507 5506 5505 5504 5503 5502 5501 5501 5500 5499 5498 5497 5496 5495 5494 5493 5492 5491 5490 5489 5488 5487 5486 5485 5484 5483 5482 5481 5480 5479 5477 5476 5475 5475 5474 5473 5472 5471 5471 5470 5470 5470 5470 5471 5472 5475 5477 5480 5483 5487 5490 5493 5498 5502 5505 5508 5511 5515 5517 5518 5519 5520 5521 5522 5521 5522
5507 5506 5505 5505 5504 5503 5502 5501 5500 5499 5498 5497 5496 5495 5494 5493 5491 5490 5489 5488 5487 5486 5485 5485 5484 5483 5482 5480 5480 5478 5477 5476 5475 5474 5473 5472 5470 5470 5469 5468 5467 5467 5466 5465 5465 5465 5465 5466 5468 5471 5474 5477 5481 5486 5490 5493 5498 5501 5504 5506 5510 5511 5512 5513 5514 5515 5515 5515 5517
5505 5505 5503 5502 5501 5500 5499 5498 5497 5496 5495 5494 5493 5492 5491 5490 5488 5487 5486 5485 5484 5483 5482 5481 5480 5479 5478 5477 5476 5475 5474 5472 5471 5470 5469 5468 5467 5465 5465 5464 5463 5462 5462 5461 5460 5460 5460 5461 5462 5465 5467 5471 5475 5480 5485 5489 5493 5496 5499 5502 5505 5505 5505 5505 5506 5507 5508 5509 5510
5504 5503 5501 5500 5499 5498 5497 5496 5495 5494 5493 5491 5490 5489 5488 5486 5485 5484 5482 5481 5480 5480 5479 5478 5477 5475 5475 5474 5472 5471 5470 5469 5468 5466 5465 5464 5463 5462 5460 5460 5459 5458 5457 5456 5456 5456 5456 5456 5457 5459 5461 5465 5470 5475 5480 5484 5488 5491 5495 5499 5500 5499 5497 5496 5498 5499 5500 5502 5503
5502 5501 5500 5498 5497 5496 5495 5494 5492 5491 5490 5489 5488 5486 5485 5484 5482 5480 5479 5478 5477 5476 5475 5474 5473 5472 5471 5470 5469 5467 5466 5465 5464 5463 5461 5460 5459 5457 5456 5455 5454 5453 5453 5452 5452 5451 5451 5452 5452 5454 5456 5460 5464 5470 5475 5479 5482 5484 5489 5495 5494 5491 5489 5489 5490 5492 5494 5495 5497
5500 5499 5498 5496 5495 5494 5492 5491 5490 5489 5487 5486 5485 5484 5482 5480 5479 5477 5476 5475 5474 5473 5472 5470 5469 5468 5467 5466 5465 5464 5463 5461 5460 5459 5458 5456 5455 5453 5452 5451 5450 5449 5448 5448 5447 5447 5447 5448 5448 5449 5451 5454 5458 5463 5469 5473 5475 5476 5479 5484 5484 5483 5483 5484 5485 5487 5488 5490 5491
5498 5497 5495 5494 5492 5491 5490 5489 5487 5486 5485 5483 5482 5481 5479 5478 5476 5474 5473 5472 5470 5469 5468 5467 5466 5465 5464 5463 5462 5460 5459 5458 5456 5455 5454 5452 5451 5449 5448 5446 5445 5445 5444 5444 5443 5443 5444 5444 5444 5445 5446 5449 5453 5457 5462 5466 5469 5470 5471 5472 5475 5477 5479 5480 5482 5483 5484 5485 5487
5496 5495 5493 5491 5490 5489 5487 5486 5485 5483 5482 5480 5479 5478 5476 5475 5473 5471 5470 5468 5467 5466 5465 5464 5462 5461 5460 5459 5458 5457 5455 5454 5453 5452 5450 5449 5447 5445 5444 5442 5441 5440 5440 5440 5440 5440 5440 5440 5440 5441 5442 5445 5448 5452 5456 5460 5463 5464 5466 5467 5469 5470 5473 5476 5479 5480 5481 5482 5483
5494 5492 5490 5489 5487 5486 5485 5483 5482 5480 5479 5477 5476 5475 5473 5471 5470 5468 5466 5465 5464 5463 5461 5460 5459 5458 5457 5455 5454 5453 5452 5451 5450 5448 5447 5445 5443 5442 5440 5439 5438 5437 5436 5436 5436 5437 5437 5437 5437 5437 5439 5441 5444 5447 5451 5455 5458 5460 5462 5464 5465 5465 5466 5469 5473 5476 5478 5480 5481
5491 5490 5488 5486 5485 5483 5482 5480 5479 5477 5475 5474 5473 5471 5470 5468 5466 5465 5463 5462 5460 5459 5458 5457 5455 5454 5453 5452 5451 5450 5448 5447 5446 5445 5443 5442 5440 5438 5437 5435 5435 5434 5433 5433 5433 5433 5434 5434 5434 5434 5435 5437 5440 5443 5447 5451 5455 5456 5458 5459 5460 5460 5462 5465 5468 5471 5475 5477 5479
5489 5487 5485 5484 5482 5480 5479 5477 5475 5474 5472 5471 5470 5468 5466 5465 5463 5461 5460 5458 5457 5456 5455 5453 5452 5451 5450 5449 5447 5446 5445 5444 5443 5441 5440 5438 5437 5435 5434 5433 5432 5431 5430 5430 5430 5430 5430 5431 5431 5431 5432 5434 5437 5441 5445 5448 5451 5452 5452 5454 5454 5455 5457 5460 5464 5467 5470 5472 5475
5486 5485 5483 5481 5480 5478 5476 5474 5472 5470 5469 5467 5466 5465 5463 5461 5460 5458 5456 5455 5453 5452 5451 5450 5449 5447 5446 5445 5444 5443 5441 5440 5439 5438 5437 5435 5434 5432 5431 5430 5429 5428 5428 5428 5428 5428 5428 5429 5429 5429 5430 5433 5436 5440 5444 5446 5447 5447 5448 5448 5449 5450 5453 5456 5460 5464 5467 5469 5470
5484 5482 5480 5478 5476 5475 5473 5471 5469 5467 5466 5464 5463 5461 5460 5458 5456 5454 5453 5451 5450 5449 5448 5446 5445 5444 5443 5442 5441 5440 5438 5437 5436 5435 5434 5433 5431 5430 5428 5427 5426 5425 5425 5425 5425 5425 5426 5426 5427 5427 5429 5431 5434 5436 5440 5443 5444 5444 5444 5444 5445 5447 5450 5453 5457 5460 5463 5465 5466
5480 5479 5477 5475 5473 5471 5470 5468 5466 5464 5462 5461 5459 5458 5456 5454 5453 5451 5449 5447 5446 5445 5444 5443 5442 5441 5440 5439 5437 5436 5435 5434 5433 5432 5431 5430 5428 5427 5426 5425 5424 5424 5423 5423 5423 5423 5424 5424 5424 5425 5426 5428 5430 5432 5435 5438 5441 5442 5442 5442 5443 5445 5447 5450 5453 5457 5459 5461 5462
5477 5475 5474 5472 5470 5468 5466 5464 5462 5460 5459 5457 5456 5454 5453 5451 5449 5447 5445 5444 5442 5441 5440 5440 5439 5437 5436 5435 5435 5433 5432 5431 5430 5429 5428 5427 5426 5425 5423 5422 5422 5422 5421 5421 5421 5421 5421 5421 5422 5422 5424 5425 5427 5428 5430 5434 5437 5440 5440 5441 5441 5442 5444 5447 5450 5452 5455 5456 5458
5473 5471 5470 5468 5466 5465 5463 5461 5459 5457 5455 5454 5452 5450 5449 5447 5445 5444 5442 5440 5439 5438 5437 5436 5435 5434 5433 5432 5431 5430 5430 5428 5427 5426 5425 5424 5423 5422 5421 5420 5420 5420 5420 5419 5419 5420 5420 5419 5419 5420 5421 5423 5424 5425 5426 5429 5432 5435 5436 5437 5437 5438 5440 5443 5445 5448 5450 5452 5454
5470 5468 5466 5464 5462 5461 5459 5457 5455 5453 5451 5450 5448 5447 5445 5444 5442 5440 5438 5437 5435 5434 5433 5433 5432 5431 5430 5429 5428 5427 5426 5425 5424 5423 5422 5421 5420 5420 5419 5418 5418 5418 5418 5418 5418 5418 5418 5417 5417 5418 5419 5420 5421 5422 5423 5425 5427 5430 5431 5432 5433 5435 5436 5439 5441 5443 5445 5447 5450
5466 5464 5462 5460 5459 5457 5455 5453 5451 5450 5448 5446 5445 5443 5441 5440 5438 5437 5435 5433 5432 5430 5430 5429 5428 5427 5427 5426 5425 5425 5424 5423 5422 5421 5420 5419 5418 5417 5417 5416 5415 5415 5416 5417 5417 5416 5416 5416 5416 5416 5416 5417 5418 5419 5420 5421 5423 5425 5426 5428 5429 5431 5433 5435 5437 5439 5441 5443 5446
5462 5460 5458 5456 5455 5453 5451 5449 5448 5446 5444 5442 5441 5439 5438 5436 5435 5433 5432 5430 5429 5427 5426 5425 5425 5424 5424 5423 5422 5421 5421 5420 5419 5418 5417 5416 5416 5415 5415 5414 5414 5414 5414 5415 5416 5415 5415 5415 5415 5414 5414 5415 5415 5416 5417 5418 5420 5421 5423 5424 5425 5427 5429 5431 5433 5435 5437 5439 5442
5458 5456 5454 5452 5450 5449 5447 5445 5444 5442 5440 5439 5437 5435 5434 5432 5431 5430 5428 5427 5425 5424 5423 5422 5421 5421 5420 5420 5419 5419 5418 5417 5416 5416 5415 5415 5414 5413 5413 5413 5412 5412 5412 5413 5415 5414 5413 5414 5414 5414 5413 5413 5413 5414 5415 5416 5417 5418 5420 5421 5423 5425 5426 5428 5430 5432 5433 5435 5438
5454 5452 5450 5448 5446 5445 5443 5441 5440 5438 5436 5435 5433 5431 5430 5429 5427 5426 5425 5424 5422 5421 5420 5418 5418 5417 5417 5416 5416 5415 5415 5414 5414 5413 5413 5412 5412 5411 5411 5411 5410 5410 5410 5411 5412 5412 5411 5412 5412 5412 5412 5412 5412 5412 5412 5413 5415 5416 5418 5419 5421 5422 5424 5426 5427 5429 5430 5432 5435
5450 5448 5446 5444 5442 5440 5439 5437 5436 5434 5433 5431 5429 5428 5426 5425 5424 5422 5421 5420 5419 5418 5416 5415 5414 5414 5413 5413 5413 5412 5412 5411 5411 5410 5410 5410 5409 5409 5409 5408 5408 5409 5409 5408 5409 5409 5409 5409 5410 5410 5410 5410 5410 5410 5410 5411 5412 5414 5415 5417 5419 5420 5421 5423 5425 5426 5428 5429 5431
5446 5444 5442 5440 5438 5436 5435 5433 5432 5430 5429 5427 5425 5424 5422 5421 5420 5419 5417 5416 5415 5414 5413 5412 5411 5410 5410 5410 5410 5409 5409 5409 5408 5408 5407 5407 5407 5406 5406 5406 5406 5406 5406 5406 5406 5407 5406 5406 5406 5407 5407 5408 5408 5408 5409 5409 5410 5411 5413 5415 5416 5417 5419 5420 5422 5423 5425 5426 5428
5442 5440 5438 5435 5434 5432 5430 5429 5427 5426 5425 5423 5422 5420 5419 5417 5416 5415 5414 5413 5412 5411 5410 5409 5408 5407 5407 5406 5406 5406 5406 5405 5405 5405 5405 5404 5404 5404 5404 5404 5403 5403 5403 5403 5404 5404 5404 5403 5403 5404 5404 5404 5405 5405 5406 5407 5408 5409 5410 5412 5413 5415 5416 5417 5419 5420 5421 5423 5425
5438 5435 5433 5431 5429 5427 5426 5424 5423 5421 5420 5419 5417 5416 5415 5413 5412 5411 5410 5409 5408 5407 5406 5405 5405 5404 5403 5403 5403 5402 5402 5402 5402 5402 5402 5401 5401 5401 5401 5401 5400 5400 5400 5400 5401 5401 5401 5401 5400 5400 5401 5401 5401 5402 5403 5404 5405 5406 5407 5409 5410 5412 5413 5415 5416 5417 5419 5420 5421
5433 5431 5429 5427 5425 5423 5421 5420 5418 5416 5415 5414 5413 5412 5411 5410 5408 5407 5406 5405 5404 5404 5403 5402 5401 5401 5400 5400 5399 5399 5399 5399 5399 5399 5399 5399 5399 5399 5398 5398 5398 5397 5398 5398 5399 5398 5398 5398 5398 5398 5398 5398 5398 5399 5400 5400 5401 5403 5404 5405 5407 5409 5410 5411 5413 5414 5415 5417 5418
5428 5426 5424 5422 5420 5419 5417 5415 5413 5412 5410 5409 5408 5407 5406 5405 5404 5403 5402 5401 5400 5400 5399 5399 5398 5397 5397 5396 5396 5396 5395 5395 5395 5396 5396 5396 5396 5396 5395 5395 5395 5395 5395 5395 5396 5395 5395 5395 5395 5395 5395 5395 5395 5395 5396 5397 5398 5400 5401 5402 5404 5405 5406 5408 5409 5410 5412 5413 5415
5424 5422 5420 5417 5415 5414 5412 5410 5409 5407 5405 5404 5403 5402 5401 5400 5400 5399 5398 5396 5396 5395 5395 5395 5394 5394 5393 5393 5393 5392 5392 5392 5392 5392 5393 5393 5393 5393 5393 5392 5392 5392 5392 5392 5393 5392 5392 5393 5393 5393 5393 5392 5392 5393 5393 5394 5395 5396 5398 5399 5400 5401 5403 5404 5405 5407 5408 5409 5410
5419 5417 5415 5413 5411 5409 5407 5405 5404 5402 5401 5400 5398 5397 5396 5395 5395 5394 5393 5392 5391 5391 5390 5390 5390 5390 5390 5389 5389 5389 5389 5389 5389 5389 5389 5390 5390 5390 5390 5390 5389 5389 5389 5389 5390 5390 5389 5390 5390 5390 5390 5390 5390 5390 5391 5391 5392 5394 5395 5396 5398 5399 5400 5401 5403 5404 5405 5406 5407
5415 5413 5410 5408 5406 5404 5402 5400 5399 5397 5396 5395 5393 5392 5391 5390 5390 5389 5388 5388 5387 5386 5386 5386 5385 5385 5385 5385 5385 5385 5385 5385 5385 5385 5385 5386 5386 5386 5386 5386 5386 5386 5386 5386 5388 5387 5386 5387 5387 5387 5387 5387 5388 5388 5388 5389 5390 5391 5392 5394 5395 5396 5397 5398 5400 5401 5402 5403 5405
5411 5409 5406 5404 5402 5400 5398 5396 5394 5393 5391 5390 5388 5387 5386 5385 5384 5384 5383 5383 5382 5382 5382 5381 5381 5381 5381 5381 5381 5381 5381 5381 5381 5381 5382 5382 5382 5383 5383 5383 5383 5383 5383 5383 5385 5385 5383 5385 5385 5385 5385 5385 5385 5385 5385 5386 5387 5388 5389 5390 5392 5393 5394 5395 5396 5397 5399 5400 5401
5407 5405 5402 5400 5398 5396 5394 5391 5390 5388 5386 5385 5383 5382 5381 5380 5379 5378 5378 5378 5377 5377 5377 5377 5377 5376 5376 5377 5377 5377 5377 5377 5377 5377 5378 5378 5378 5379 5379 5380 5380 5380 5380 5380 5382 5381 5381 5381 5382 5382 5382 5382 5382 5382 5382 5383 5384 5385 5386 5387 5389 5390 5390 5391 5392 5394 5395 5396 5398
5404 5401 5399 5396 5394 5392 5390 5387 5385 5383 5381 5380 5378 5377 5376 5375 5374 5373 5372 5372 5372 5372 5372 5372 5372 5372 5372 5372 5372 5372 5373 5373 5373 5373 5374 5374 5374 5375 5375 5375 5376 5376 5376 5376 5377 5378 5379 5378 5379 5379 5379 5379 5379 5379 5380 5380 5381 5382 5383 5384 5385 5386 5387 5388 5389 5390 5391 5392 5394
5400 5398 5395 5392 5390 5388 5385 5383 5381 5379 5377 5375 5374 5372 5371 5370 5369 5368 5367 5366 5366 5366 5367 5367 5367 5367 5367 5367 5367 5368 5368 5368 5369 5369 5370 5370 5370 5370 5371 5371 5372 5372 5372 5373 5373 5374 5375 5375 5376 5376 5376 5376 5376 5376 5377 5377 5378 5379 5380 5381 5382 5383 5384 5385 5385 5386 5388 5389 5390
5397 5394 5391 5389 5386 5384 5382 5379 5377 5375 5372 5370 5369 5367 5366 5365 5364 5362 5362 5361 5361 5361 5361 5361 5362 5362 5362 5362 5362 5363 5363 5364 5364 5365 5365 5365 5366 5366 5367 5367 5367 5368 5368 5369 5369 5370 5371 5373 5373 5373 5373 5373 5374 5374 5374 5375 5375 5376 5377 5378 5379 5380 5381 5382 5383 5383 5384 5385 5387